SWA3988 KLAS-KDEN

Flight info

Callsign SWA3988
Flight time N/A
Altitude 39000
Route GIDGT3 TUKRR DCT BUMMP SSKII4
Aircraft B38M/M-SDE2E3GHIJ4J7P2RWZ/LB1D1

Departure

Time 2026-05-01 15:26
Airport Harry Reid International Airport (KLAS)

Arrival

Time N/A
Airport Denver International Airport (KDEN)
Time Latitude Longitude Altitude Speed Heading
2026-05-01 14:40 36.08287 -115.15360 2193 ft 0 kts 108°
2026-05-01 15:14 36.08293 -115.15384 2192 ft 4 kts 108°
2026-05-01 15:15 36.08310 -115.15447 2192 ft 3 kts 108°
2026-05-01 15:15 36.08316 -115.15469 2192 ft 2 kts 108°
2026-05-01 15:19 36.08315 -115.15467 2192 ft 1 kts 121°
2026-05-01 15:20 36.08229 -115.15431 2192 ft 15 kts 164°
2026-05-01 15:20 36.08128 -115.15364 2192 ft 17 kts 125°
2026-05-01 15:20 36.08086 -115.15223 2192 ft 17 kts 132°
2026-05-01 15:21 36.08000 -115.15204 2192 ft 12 kts 180°
2026-05-01 15:21 36.07929 -115.15203 2192 ft 7 kts 179°
2026-05-01 15:21 36.07886 -115.15202 2192 ft 8 kts 179°
2026-05-01 15:21 36.07815 -115.15235 2192 ft 15 kts 237°
2026-05-01 15:22 36.07804 -115.15611 2192 ft 26 kts 270°
2026-05-01 15:22 36.07804 -115.15827 2192 ft 24 kts 270°
2026-05-01 15:22 36.07804 -115.16040 2192 ft 26 kts 270°
2026-05-01 15:23 36.07803 -115.16268 2192 ft 24 kts 261°
2026-05-01 15:23 36.07719 -115.16360 2192 ft 16 kts 205°
2026-05-01 15:23 36.07596 -115.16431 2192 ft 23 kts 205°
2026-05-01 15:23 36.07447 -115.16516 2192 ft 23 kts 204°
2026-05-01 15:24 36.07394 -115.16630 2192 ft 14 kts 290°
2026-05-01 15:24 36.07436 -115.16722 2192 ft 11 kts 329°
2026-05-01 15:24 36.07474 -115.16722 2192 ft 0 kts 22°
2026-05-01 15:24 36.07475 -115.16722 2192 ft 0 kts 22°
2026-05-01 15:25 36.07477 -115.16721 2192 ft 2 kts 22°
2026-05-01 15:25 36.07621 -115.16639 2192 ft 54 kts 25°
2026-05-01 15:26 36.08176 -115.16321 2193 ft 120 kts 25°
2026-05-01 15:26 36.09106 -115.15790 2292 ft 163 kts 25°
2026-05-01 15:26 36.10165 -115.15195 2915 ft 171 kts 25°
2026-05-01 15:26 36.11249 -115.14512 3546 ft 181 kts 32°
2026-05-01 15:27 36.12101 -115.13275 3928 ft 204 kts 60°
2026-05-01 15:27 36.12429 -115.11521 4541 ft 214 kts 80°
2026-05-01 15:27 36.12640 -115.09638 5242 ft 225 kts 82°
2026-05-01 15:28 36.13141 -115.05501 6487 ft 264 kts 81°
2026-05-01 15:28 36.13442 -115.03177 7384 ft 276 kts 81°
2026-05-01 15:28 36.13752 -115.00840 8371 ft 281 kts 80°
2026-05-01 15:29 36.14394 -114.95970 10325 ft 292 kts 81°
2026-05-01 15:29 36.14654 -114.93462 11293 ft 296 kts 81°
2026-05-01 15:29 36.15188 -114.88330 13107 ft 305 kts 81°
2026-05-01 15:30 36.15585 -114.83938 14451 ft 314 kts 81°
2026-05-01 15:31 36.16668 -114.71925 17630 ft 335 kts 80°
2026-05-01 15:31 36.17043 -114.65925 18540 ft 361 kts 83°
2026-05-01 15:32 36.17409 -114.59532 19013 ft 380 kts 83°
2026-05-01 15:32 36.17787 -114.52993 18944 ft 382 kts 83°
2026-05-01 15:33 36.18357 -114.43048 20597 ft 392 kts 82°
2026-05-01 15:34 36.18938 -114.32749 22263 ft 406 kts 82°